Location: S�tio Afonso Gruber
(26.1760°S, 49.5250°W)
Time: 09:26:43
(UTC+00:00)

Cosmos 1844 Rocket - Pass Details

Date: 08 October 2020
Orbit: 823 x 846 km, 71.0° (Epoch: 22 October)

Event Time Altitude Azimuth Distance (km) Brightness Sun altitude
Exits shadow 08:00:53 15° 278° (W) 2,117 4.1 -11.6°
Maximum altitude 08:03:33 21° 244° (WSW) 1,833 4.0 -11.0°
Drops below altitude 10° 08:07:43 10° 196° (SSW) 2,474 5.1 -10.1°
Sets 08:10:49 0° 180° (S) 3,411 6.0 -9.5°
